PY5TG-13 Weather Reports


time (UTC)temp
C
wind
direction
speed
KPH
gust
KPH
rain 1hr
cm
rain 24hr
cm
rain mn
cm
humidity
%
barometer
mb
20260505053109 16 270 3.2 8.0 0.00 0.00 0.00 98 1018.5
20260505053005 16 315 3.2 12.9 0.00 0.00 0.00 98 1018.4
20260505052009 16 0 3.2 9.7 0.00 0.00 0.00 98 1018.7
20260505051009 15 315 3.2 12.9 0.00 0.00 0.00 98 1018.8
20260505050109 15 315 1.6 3.2 0.00 0.00 0.00 98 1018.9
20260505041009 15 0 1.6 3.2 0.00 0.00 0.00 98 1019.7
20260505040010 14 0 0.0 3.2 0.00 0.00 0.00 98 1019.9
20260505035011 14 0 1.6 3.2 0.00 0.00 0.00 98 1020.0
20260505034110 13 0 1.6 1.6 0.00 0.00 0.00 98 1020.1
20260505034005 13 0 0.0 3.2 0.00 0.00 0.00 98 1020.1
20260505033009 13 0 0.0 1.6 0.00 0.00 0.00 98 1020.2
20260505032113 13 0 0.0 0.0 0.00 0.00 0.00 98 1020.3
20260505032005 13 0 0.0 0.0 0.00 0.00 0.00 98 1020.4
20260505031010 13 0 0.0 3.2 0.00 0.00 0.00 98 1020.2
20260505030011 13 0 0.0 1.6 0.00 0.00 0.00 98 1020.3
20260505025010 13 0 0.0 3.2 0.00 0.00 0.20 98 1020.1
20260505024010 14 0 0.0 3.2 0.00 0.00 0.20 98 1020.0
20260505023110 14 0 0.0 1.6 0.00 0.00 0.20 98 1020.1
20260505023005 14 0 0.0 1.6 0.00 0.00 0.20 98 1020.0
20260505022112 14 0 0.0 1.6 0.00 0.00 0.20 98 1020.2
20260505022006 14 0 0.0 1.6 0.00 0.00 0.20 98 1020.0
20260505021009 14 0 0.0 1.6 0.00 0.00 0.20 98 1020.0
20260505020009 13 0 0.0 1.6 0.00 0.00 0.20 98 1020.0
20260505015011 13 0 0.0 1.6 0.00 0.00 0.20 98 1019.9
20260505014109 13 0 0.0 1.6 0.00 0.00 0.20 98 1020.0
20260505014005 13 0 0.0 1.6 0.00 0.00 0.20 98 1019.9
20260505012010 14 0 0.0 3.2 0.00 0.00 0.20 98 1019.8
20260505010011 13 0 0.0 1.6 0.00 0.00 0.20 98 1019.6
20260505005010 14 0 0.0 1.6 0.00 0.00 0.20 98 1019.5
20260505004010 15 0 0.0 3.2 0.00 0.00 0.20 98 1019.3
20260505003011 15 315 1.6 6.4 0.00 0.00 0.20 98 1019.2
20260505002010 15 315 1.6 6.4 0.00 0.00 0.20 98 1019.1
20260505001109 14 0 0.0 3.2 0.00 0.00 0.20 98 1019.4
20260505001005 14 0 0.0 3.2 0.00 0.00 0.20 98 1019.4
20260505000009 13 315 1.6 3.2 0.00 0.00 0.20 98 1019.3
20260504235010 13 225 0.0 3.2 0.00 0.00 0.20 98 1019.3
20260504234109 13 270 1.6 1.6 0.00 0.00 0.20 98 1019.3
20260504234005 13 270 0.0 1.6 0.00 0.00 0.20 98 1019.3
20260504233009 13 270 0.0 0.0 0.00 0.00 0.20 98 1019.3
20260504232010 13 315 0.0 3.2 0.00 0.00 0.20 98 1019.3
20260504231109 13 270 0.0 0.0 0.00 0.00 0.20 98 1019.2
20260504231005 13 270 0.0 1.6 0.00 0.00 0.20 98 1019.1
20260504230109 13 270 0.0 1.6 0.00 0.00 0.20 98 1019.0
20260504230005 13 270 0.0 1.6 0.00 0.00 0.20 98 1018.9
20260504225009 13 270 0.0 1.6 0.00 0.00 0.20 98 1018.8
20260504224009 14 270 0.0 1.6 0.00 0.00 0.20 98 1018.7
20260504223109 14 270 0.0 0.0 0.00 0.00 0.20 98 1018.5
20260504223005 14 270 0.0 1.6 0.00 0.00 0.20 98 1018.5
20260504222009 14 225 0.0 1.6 0.00 0.00 0.20 98 1018.4
20260504221009 15 225 0.0 3.2 0.00 0.00 0.20 98 1018.1
20260504220109 15 315 0.0 1.6 0.00 0.00 0.20 98 1017.9
20260504220005 15 315 0.0 3.2 0.00 0.00 0.20 98 1018.0
20260504215009 15 315 0.0 3.2 0.00 0.00 0.20 98 1017.8
20260504214009 15 315 0.0 3.2 0.00 0.00 0.20 98 1017.7
20260504213010 15 315 0.0 1.6 0.00 0.00 0.20 97 1017.7
20260504212011 15 315 0.0 1.6 0.00 0.00 0.20 97 1017.8
20260504211010 15 315 0.0 1.6 0.00 0.00 0.20 96 1017.7
20260504210109 16 315 0.0 1.6 0.00 0.00 0.20 96 1017.7
20260504210005 16 315 1.6 3.2 0.00 0.00 0.20 96 1017.7
20260504205009 16 45 1.6 3.2 0.00 0.00 0.20 94 1017.5
20260504204009 16 45 1.6 3.2 0.00 0.00 0.20 94 1017.3
20260504203010 16 270 1.6 3.2 0.00 0.00 0.20 92 1016.9
20260504202010 17 270 3.2 6.4 0.00 0.00 0.20 88 1016.6
20260504201009 18 90 3.2 8.0 0.00 0.00 0.20 85 1016.1
20260504200010 20 270 3.2 8.0 0.00 0.00 0.20 83 1015.9
20260504195110 20 315 1.6 1.6 0.00 0.00 0.20 82 1015.7
20260504195005 20 315 1.6 8.0 0.00 0.00 0.20 81 1015.7
20260504193010 20 0 1.6 3.2 0.00 0.00 0.20 84 1015.7
20260504192011 20 315 1.6 6.4 0.00 0.00 0.20 83 1015.6
20260504191011 20 270 4.8 9.7 0.00 0.00 0.20 83 1015.6
20260504190010 20 225 3.2 8.0 0.00 0.00 0.20 85 1015.7
20260504185011 18 315 3.2 9.7 0.00 0.00 0.20 88 1015.7
20260504184110 18 0 1.6 6.4 0.00 0.00 0.20 89 1016.0
20260504183013 18 270 4.8 12.9 0.00 0.00 0.20 88 1015.9
20260504182019 18 315 4.8 9.7 0.00 0.00 0.20 87 1015.8
20260504181009 17 270 6.4 12.9 0.00 0.00 0.20 90 1016.1
20260504175010 17 315 3.2 9.7 0.00 0.00 0.20 92 1016.5
20260504174010 17 315 3.2 9.7 0.00 0.00 0.20 93 1016.9
20260504173010 17 180 3.2 12.9 0.00 0.00 0.20 94 1017.1
20260504172109 16 180 1.6 6.4 0.00 0.00 0.20 97 1017.3
20260504172005 16 180 1.6 6.4 0.00 0.00 0.20 97 1017.5
20260504171010 16 225 1.6 8.0 0.00 0.00 0.20 96 1017.9
20260504170110 15 180 1.6 3.2 0.00 0.00 0.20 97 1017.8
20260504151011 15 315 0.0 6.4 0.00 0.00 0.03 95 1020.2
20260504141015 16 315 4.8 9.7 0.00 0.00 0.00 88 1020.2
20260504140109 16 45 0.0 3.2 0.00 0.00 0.00 87 1020.2
20260504090108 12 225 4.8 8.0 0.00 0.00 0.00 98 1019.1
20260504081008 12 90 8.0 14.5 0.00 0.00 0.00 98 1018.3
20260504080108 12 90 3.2 6.4 0.00 0.00 0.00 98 1018.3
20260504070108 12 135 14.5 20.9 0.00 0.00 0.00 98 1018.1
20260504060108 12 90 12.9 19.3 0.00 0.00 0.00 98 1018.5